FW1786 Weather Reports


Display with metric or nautical units.
time (UTC)temp
F
wind
direction
speed
MPH
gust
MPH
rain 1hr
in
rain 24hr
in
rain mn
in
humidity
%
barometer
mb
20260901231524 96 11 1.0 4.0 0.00 0.00 0.00 38 1015.6
20260901230025 96 300 1.0 4.0 0.00 0.00 0.00 39 1015.8
20260901224529 97 173 2.0 7.0 0.00 0.00 0.00 37 1015.6
20260901223014 97 115 1.0 5.0 0.00 0.00 0.00 39 1015.7
20260901221522 97 245 1.0 4.0 0.00 0.00 0.00 41 1015.5
20260901220013 95 64 1.0 4.0 0.00 0.00 0.00 42 1015.5
20260901214528 98 194 2.0 5.0 0.00 0.00 0.00 35 1015.5
20260901213029 98 231 2.0 9.0 0.00 0.00 0.00 34 1015.7
20260901211514 97 264 1.0 3.0 0.00 0.00 0.00 38 1015.6
20260901210014 97 295 1.0 8.0 0.00 0.00 0.00 40 1015.9
20260901204515 95 221 0.0 4.0 0.00 0.00 0.00 47 1016.2
20260901203022 94 340 0.0 3.0 0.00 0.00 0.00 44 1016.3
20260901201517 97 325 1.0 6.0 0.00 0.00 0.00 38 1016.5
20260901200033 97 333 1.0 3.0 0.00 0.00 0.00 40 1016.7
20260901194522 96 38 2.0 5.0 0.00 0.00 0.00 40 1016.7
20260901193020 94 77 0.0 4.0 0.00 0.00 0.00 42 1017.0
20260901191526 95 5 1.0 4.0 0.00 0.00 0.00 42 1017.1
20260901190025 95 5 0.0 2.0 0.00 0.00 0.00 42 1017.2
20260901184504 93 318 0.0 3.0 0.00 0.00 0.00 45 1017.5
20260901183013 97 334 1.0 5.0 0.00 0.00 0.00 39 1017.7
20260901181505 96 288 1.0 4.0 0.00 0.00 0.00 39 1018.0
20260901180007 94 267 0.0 3.0 0.00 0.00 0.00 41 1018.2
20260901174501 93 140 1.0 4.0 0.00 0.00 0.00 45 1018.5
20260901173005 92 341 0.0 4.0 0.00 0.00 0.00 45 1018.7
20260901171504 92 161 1.0 5.0 0.00 0.00 0.00 48 1018.7
20260901170004 86 331 1.0 4.0 0.00 0.00 0.00 63 1018.9
20260901164505 85 179 2.0 9.0 0.00 0.00 0.00 63 1019.1
20260901163007 92 187 1.0 4.0 0.00 0.00 0.00 47 1019.1
20260901161504 91 210 1.0 6.0 0.00 0.00 0.00 50 1019.2
20260901160010 91 255 2.0 7.0 0.00 0.00 0.00 49 1019.3
20260901154509 90 166 2.0 8.0 0.00 0.00 0.00 51 1019.3
20260901153023 89 229 3.0 6.0 0.00 0.00 0.00 54 1019.4
20260901151507 88 96 1.0 5.0 0.00 0.00 0.00 57 1019.4
20260901150011 86 162 0.0 8.0 0.00 0.00 0.00 59 1019.5
20260901144507 85 189 3.0 7.0 0.00 0.00 0.00 61 1019.4
20260901143016 83 205 0.0 5.0 0.00 0.00 0.00 68 1019.4
20260901141519 79 177 0.0 2.0 0.00 0.00 0.00 74 1019.4
20260901140012 78 48 0.0 2.0 0.00 0.00 0.00 77 1019.5
20260901134514 77 158 0.0 1.0 0.00 0.00 0.00 78 1019.7
20260901133018 75 177 1.0 2.0 0.00 0.00 0.00 81 1019.7
20260901131511 73 342 0.0 1.0 0.00 0.00 0.00 83 1019.4
20260901130024 72 342 0.0 1.0 0.00 0.00 0.00 87 1019.3
20260901124515 70 342 0.0 1.0 0.00 0.00 0.00 90 1019.2
20260901123017 69 5 0.0 0.0 0.00 0.00 0.00 90 1019.1
20260901121520 69 20 0.0 1.0 0.00 0.00 0.00 90 1018.9
20260901120018 69 20 0.0 1.0 0.00 0.00 0.00 90 1018.8
20260901114512 69 20 0.0 1.0 0.00 0.00 0.00 90 1018.7
20260901113016 69 20 0.0 1.0 0.00 0.00 0.00 90 1018.6
20260901111526 69 20 0.0 0.0 0.00 0.00 0.00 90 1018.5
20260901110037 69 20 0.0 0.0 0.00 0.00 0.00 89 1018.4
20260901104526 69 20 0.0 1.0 0.00 0.00 0.00 88 1018.4
20260901103011 69 20 0.0 1.0 0.00 0.00 0.00 88 1018.3
20260901101512 69 20 0.0 0.0 0.00 0.00 0.00 88 1018.3
20260901100013 69 20 0.0 1.0 0.00 0.00 0.00 88 1018.3
20260901094511 69 24 0.0 1.0 0.00 0.00 0.00 88 1018.1
20260901093009 69 24 0.0 1.0 0.00 0.00 0.00 88 1018.1
20260901091524 69 26 0.0 1.0 0.00 0.00 0.00 86 1018.1
20260901090022 69 35 0.0 1.0 0.00 0.00 0.00 86 1018.0
20260901084523 69 5 0.0 1.0 0.00 0.00 0.00 86 1018.0
20260901083014 69 5 0.0 0.0 0.00 0.00 0.00 85 1017.9
20260901081514 70 5 0.0 0.0 0.00 0.00 0.00 85 1017.8
20260901080008 70 5 0.0 1.0 0.00 0.00 0.00 85 1017.8
20260901074530 70 5 0.0 1.0 0.00 0.00 0.00 84 1017.9
20260901073019 70 5 0.0 1.0 0.00 0.00 0.00 83 1017.8
20260901071515 71 5 0.0 1.0 0.00 0.00 0.00 83 1017.7
20260901070028 71 5 0.0 1.0 0.00 0.00 0.00 84 1017.7
20260901064516 72 5 0.0 0.0 0.00 0.00 0.00 81 1017.7
20260901063013 72 5 0.0 1.0 0.00 0.00 0.00 82 1017.8
20260901061514 73 17 0.0 1.0 0.00 0.00 0.00 80 1017.7
20260901060022 73 34 0.0 1.0 0.00 0.00 0.00 80 1017.9
20260901054527 74 342 0.0 2.0 0.00 0.00 0.00 78 1017.7
20260901053028 74 313 0.0 2.0 0.00 0.00 0.00 79 1017.7
20260901051523 75 304 0.0 1.0 0.00 0.00 0.00 74 1017.6
20260901050020 76 306 0.0 2.0 0.00 0.00 0.00 72 1017.6
20260901044526 76 5 0.0 1.0 0.00 0.00 0.00 72 1017.6
20260901043030 77 9 0.0 2.0 0.00 0.00 0.00 70 1017.4
20260901041516 78 79 0.0 2.0 0.00 0.00 0.00 64 1017.4
20260901040021 77 203 0.0 3.0 0.00 0.00 0.00 68 1017.4
20260901034522 78 314 0.0 2.0 0.00 0.00 0.00 65 1017.5
20260901033035 78 88 0.0 3.0 0.00 0.00 0.00 64 1017.5
20260901031516 80 227 0.0 2.0 0.00 0.00 0.00 60 1017.3
20260901030027 81 70 0.0 2.0 0.00 0.00 0.00 58 1017.1
20260901024527 82 5 0.0 2.0 0.00 0.00 0.00 56 1017.0
20260901023032 83 85 0.0 2.0 0.00 0.00 0.00 54 1016.8
20260901021527 83 27 0.0 2.0 0.00 0.00 0.00 55 1016.7
20260901020024 84 185 0.0 1.0 0.00 0.00 0.00 54 1016.6
20260901014523 85 48 0.0 2.0 0.00 0.00 0.00 53 1016.4
20260901013005 86 110 0.0 2.0 0.00 0.00 0.00 50 1016.2
20260901011504 86 25 0.0 2.0 0.00 0.00 0.00 49 1016.0
20260901010006 87 147 0.0 5.0 0.00 0.00 0.00 48 1015.8
20260901004505 88 171 1.0 2.0 0.00 0.00 0.00 47 1015.8
20260901003011 90 160 0.0 2.0 0.00 0.00 0.00 45 1015.7
20260901001510 91 321 0.0 1.0 0.00 0.00 0.00 42 1015.6
20260901000009 93 309 0.0 3.0 0.00 0.00 0.00 41 1015.5
20260831234523 94 289 1.0 4.0 0.00 0.00 0.00 39 1015.4
20260831233013 95 264 0.0 4.0 0.00 0.00 0.00 37 1015.5